Location: Noordwijk
(52.2400°N, 4.4500°E)
Time: 20:14:47
(UTC+00:00)

AO-7 - Pass Details

Date: 10 December 2022
Orbit: 1440 x 1459 km, 101.9° (Epoch: 31 January)

Event Time Altitude Azimuth Distance (km) Brightness Sun altitude
Rises 03:32:59 0° 22° (NNE) 4,548 ? -36.4°
Reaches altitude 10° 03:36:07 10° 31° (NNE) 3,568 ? -35.9°
Maximum altitude 03:43:38 36° 96° (E) 2,138 ? -34.8°
Drops below altitude 10° 03:51:06 10° 160° (SSE) 3,561 ? -33.7°
Sets 03:54:12 0° 169° (S) 4,538 ? -33.2°
